CSS (TIANHE-1), 48274

Orbit data source: Space-Track

The Chinese Space Station (CSS), known as Tiangong or "Heavenly Palace," is China's independently developed space station that represents a significant step in China’s space exploration capabilities. Launched in phases starting with the Tianhe module in 2021, the station operates in low Earth orbit (LEO). It aims to support a variety of scientific experiments in fields such as space medicine, astronomy, and technology development.

Loading next visibility...
Identifier
48274, 2021-035A
Orbit
LEO
Country
Flag of CNCN / PRC
Related business
Manufacturer
CAST
Mission
Operational Civil Spaceship
Bus & Motor
TIANHE, Unknown motor
Mass
22,500 kg wet, ~20,838 kg dry
Launch date (UTC)
2021-04-29 (5 years ago)
Launch vehicle
CHANG ZHENG 5B
Launch site
Wenchang Satellite Launch Center (WSC)
Object type
Payload
Rocket body
Debris
Shape & HBR
Irr, 27.5 m
Radar Cross Section
2905.500 m², Large (>1 m²)

Expand to show TLE details & history
Last TLE update: 2 days ago

TLE from 2 days ago
0 CSS (TIANHE-1)
1 48274U 21035A   26171.43213816  .00020661  00000-0  24268-3 0  9991
2 48274  41.4693 302.2526 0007384 105.8714 254.2939 15.60937952293670
Epoch: 2026-06-20T10:22Z
TLE epoch observation values (Epoch: 2026-06-20T10:22:16.737Z)
Latitude
-0.00001°
Longitude
-121.964°
Altitude
385.901 km
Speed
7.68 km/s
True Right ascension
20h 09m 00s
True Declination
0° 00' 00"
Sunlit
Object was in full shadow at epoch
Visualization orbit readout
Latitude
Unknown
Longitude
Unknown
Altitude
Unknown
Speed
Unknown
Apparent Right ascension
Unknown
Apparent Declination
Unknown
Sunlit
N/A
Visualization observer readout
Local Sidereal Time
21:35:33
Azimuth
Unknown
Elevation
Unknown
Doppler factor
Unknown
Orbital elements
Apogee altitude
392.175 km
Perigee altitude
382.184 km
Semi-major axis
6,765.317 km
Eccentricity
0.00074
Inclination
41.4693°
RAAN
302.2526°
Arg. of periapsis
105.8714°
True anomaly
254.21247°
Mean anomaly
254.2939°
Eccentric anomaly
254.25318°
Mean motion
3.90042 °/min
Orbital period
92.3 mins
BSTAR
0.00024268
Loading maneuver chart data...
Computing Atmospheric mass density...
Loading historical data...
Loading historical data...
Loading historical data...
Loading historical data...
Loading historical data...
Loading historical data...
Loading historical data...
Other satellites on launch #35 in the year 2021 (2021-04-29 UTC)

Documentation

Showing up to 5 results
|